Grand Forks, ND

4:09 PM CDT on May 28, 2017 (GMT -0500)
Grand Forks International

Weather History for KGFK - December, 2013

Change the Weather History Date:

Thursday, December 19, 2013

  Actual Average Record
Temperature  
Mean Temperature -6 °F 10 °F  
Max Temperature 0 °F 19 °F 44 °F (2006)
Min Temperature -12 °F 1 °F -30 °F (1955)
Degree Days  
Heating Degree Days 71 55  
Month to date heating degree days 1217 983  
Since 1 July heating degree days 3328 3182  
Cooling Degree Days 0 0  
Month to date cooling degree days 0 0  
Year to date cooling degree days 487 379  
Moisture  
Dew Point -10 °F    
Average Humidity 77    
Maximum Humidity 83    
Minimum Humidity 71    
Precipitation  
Precipitation 0.03 in 0.02 in 0.20 in (1978)
Month to date precipitation 0.67 0.37  
Year to date precipitation 19.50 20.57  
Snow  
Snow 0.30 in 0.40 in 2.80 in (1985)
Month to date snowfall 17.7 6.4  
Since 1 July snowfall 19.3 15.6  
Snow Depth 8.00 in    
Sea Level Pressure  
Sea Level Pressure 30.19 in    
Wind  
Wind Speed 13 mph (NNW)    
Max Wind Speed 20 mph    
Max Gust Speed 30 mph    
Visibility 6 miles    
Events Snow    
T = Trace of Precipitation, MM = Missing Value Source: NWS Daily Summary

Daily Weather History Graph

Daily Weather History Graph

Search for Another Location

Airport or City:

Trip Planner

Search our weather history database for the weather conditions in past years. The results will help you decide how hot, cold, wet, or windy it might be!

Date:

Astronomy

Dec. 19, 2013 Rise Set
Actual Time 8:14 AM CST 4:37 PM CST
Civil Twilight 7:38 AM CST 5:13 PM CST
Nautical Twilight 6:58 AM CST 5:53 PM CST
Astronomical Twilight 6:20 AM CST 6:31 PM CST
Moon 7:14 PM CST (12/19) 9:25 AM CST (12/19)
Length of Visible Light 9h 35m
Length of Day
8h 22m
Waning Gibbous, 95% of the Moon is Illuminated
Dec 19
Waning Gibbous
Dec 25
Last Quarter
Jan 1
New
Jan 7
First Quarter
Jan 15
Full

Hourly Weather History & Observations

Time (CST) Temp. Windchill Dew Point Humidity Pressure Visibility Wind Dir Wind Speed Gust Speed Precip Events Conditions
12:28 AM -2.2 °F -25.7 °F -7.6 °F 78% 30.04 in 4.0 mi North 21.9 mph - 0.00 in   Haze
12:34 AM -2.2 °F -24.1 °F -7.6 °F 78% 30.04 in 2.5 mi North 18.4 mph 26.5 mph 0.00 in   Haze
12:51 AM -2.2 °F -24.7 °F -7.6 °F 78% 30.05 in 3.0 mi North 19.6 mph 28.8 mph 0.00 in   Haze
12:53 AM -2.0 °F -24.4 °F -8.0 °F 76% 30.12 in 3.0 mi North 19.6 mph 28.8 mph 0.00 in   Haze
1:18 AM -2.2 °F -26.2 °F -7.6 °F 78% 30.07 in 2.0 mi North 23.0 mph - N/A   Haze
1:42 AM -2.2 °F -25.2 °F -9.4 °F 71% 30.07 in 3.0 mi North 20.7 mph 27.6 mph N/A   Haze
1:53 AM -4.0 °F -27.0 °F -9.0 °F 79% 30.16 in 3.0 mi North 19.6 mph 27.6 mph N/A   Haze
2:45 AM -4.0 °F -26.4 °F -9.4 °F 78% 30.13 in 2.0 mi NNW 18.4 mph - N/A   Haze
2:53 AM -4.0 °F -25.2 °F -9.0 °F 79% 30.20 in 3.0 mi North 16.1 mph 26.5 mph N/A   Haze
3:31 AM -4.0 °F -22.1 °F -9.4 °F 78% 30.15 in 1.8 mi North 11.5 mph - N/A   Haze
3:40 AM -4.0 °F -26.4 °F -9.4 °F 78% 30.16 in 3.0 mi North 18.4 mph - N/A   Haze
3:53 AM -5.1 °F -28.4 °F -9.9 °F 80% 30.23 in 3.0 mi North 19.6 mph 25.3 mph N/A   Haze
4:53 AM -5.1 °F -27.2 °F -9.9 °F 80% 30.25 in 3.0 mi North 17.3 mph - N/A   Haze
5:53 AM -7.1 °F -27.6 °F -11.9 °F 79% 30.25 in 7.0 mi North 13.8 mph - N/A   Overcast
6:53 AM -7.1 °F -29.8 °F -13.0 °F 75% 30.25 in 8.0 mi North 17.3 mph - N/A   Mostly Cloudy
7:38 AM -7.6 °F -30.5 °F -13.0 °F 77% 30.17 in 9.0 mi North 17.3 mph - N/A   Scattered Clouds
7:53 AM -8.0 °F -30.3 °F -13.0 °F 79% 30.25 in 10.0 mi North 16.1 mph - N/A   Mostly Cloudy
8:53 AM -7.1 °F -25.9 °F -13.0 °F 75% 30.31 in 10.0 mi NNW 11.5 mph - N/A   Overcast
9:53 AM -5.8 °F -29.4 °F -11.2 °F 77% 30.26 in 10.0 mi NNW 19.6 mph - N/A   Overcast
10:53 AM -5.8 °F -28.2 °F -11.2 °F 77% 30.27 in 9.0 mi North 17.3 mph - N/A   Overcast
11:53 AM -5.8 °F -27.5 °F -11.2 °F 77% 30.26 in 10.0 mi North 16.1 mph - N/A   Overcast
12:53 PM -5.8 °F -24.4 °F -11.2 °F 77% 30.24 in 10.0 mi North 11.5 mph - N/A   Overcast
1:53 PM -2.2 °F -19.9 °F -9.4 °F 71% 30.22 in 10.0 mi North 11.5 mph - N/A   Overcast
2:53 PM -2.2 °F -16.8 °F -9.4 °F 71% 30.23 in 10.0 mi NNW 8.1 mph - N/A   Overcast
3:53 PM -2.2 °F -18.0 °F -9.4 °F 71% 30.22 in 8.0 mi North 9.2 mph - N/A Snow Light Snow
4:53 PM -2.0 °F -17.7 °F -8.0 °F 76% 30.22 in 9.0 mi North 9.2 mph - 0.00 in   Overcast
5:53 PM -2.2 °F -14.2 °F -7.6 °F 78% 30.22 in 2.5 mi North 5.8 mph - N/A Snow Light Snow
6:53 PM -0.4 °F -10.4 °F -7.6 °F 72% 30.22 in 2.5 mi NW 4.6 mph - N/A Snow Light Snow
7:53 PM -0.4 °F -8.3 °F -5.8 °F 78% 30.21 in 2.0 mi North 3.5 mph - N/A Snow Light Snow
8:37 PM -0.4 °F - -5.8 °F 78% 30.18 in 4.0 mi Calm Calm - N/A Snow Light Snow
8:53 PM -0.9 °F - -6.0 °F 79% 30.17 in 9.0 mi Calm Calm - 0.01 in Snow Light Snow
9:53 PM -5.1 °F - -9.0 °F 83% 30.17 in 10.0 mi Calm Calm - 0.00 in   Scattered Clouds
10:53 PM -9.4 °F -18.6 °F -13.0 °F 84% 30.16 in 10.0 mi SSW 3.5 mph - N/A   Partly Cloudy
11:53 PM -9.0 °F -20.4 °F -14.1 °F 79% 30.24 in 10.0 mi SSW 4.6 mph - N/A   Clear